Year,Month,Day,Hour,Minute,Value (Times are PST for temperature in C)
2019,08,14,00,00,16.00
2019,08,14,00,01,16.00
2019,08,14,00,02,16.00
2019,08,14,00,03,15.90
2019,08,14,00,04,15.90
2019,08,14,00,05,15.90
2019,08,14,00,06,15.90
2019,08,14,00,07,15.90
2019,08,14,00,08,15.80
2019,08,14,00,09,15.80
2019,08,14,00,10,15.80
2019,08,14,00,11,15.80
2019,08,14,00,12,15.70
2019,08,14,00,13,15.70
2019,08,14,00,14,15.70
2019,08,14,00,15,15.70
2019,08,14,00,16,15.70
2019,08,14,00,17,15.60
2019,08,14,00,18,15.60
2019,08,14,00,19,15.60
2019,08,14,00,20,15.60
2019,08,14,00,21,15.60
2019,08,14,00,22,15.60
2019,08,14,00,23,15.60
2019,08,14,00,24,15.60
2019,08,14,00,25,15.60
2019,08,14,00,26,15.50
2019,08,14,00,27,15.50
2019,08,14,00,28,15.50
2019,08,14,00,29,15.50
2019,08,14,00,30,15.40
2019,08,14,00,31,15.40
2019,08,14,00,32,15.40
2019,08,14,00,33,15.40
2019,08,14,00,34,15.30
2019,08,14,00,35,15.30
2019,08,14,00,36,15.30
2019,08,14,00,37,15.30
2019,08,14,00,38,15.30
2019,08,14,00,39,15.20
2019,08,14,00,40,15.20
2019,08,14,00,41,15.20
2019,08,14,00,42,15.20
2019,08,14,00,43,15.20
2019,08,14,00,44,15.20
2019,08,14,00,45,15.20
2019,08,14,00,46,15.20
2019,08,14,00,47,15.20
2019,08,14,00,48,15.10
2019,08,14,00,49,15.10
2019,08,14,00,50,15.10
2019,08,14,00,51,15.10
2019,08,14,00,52,15.20
2019,08,14,00,53,15.20
2019,08,14,00,54,15.20
2019,08,14,00,55,15.30
2019,08,14,00,56,15.30
2019,08,14,00,57,15.40
2019,08,14,00,58,15.40
2019,08,14,00,59,15.50
2019,08,14,01,00,15.50
2019,08,14,01,01,15.50
2019,08,14,01,02,15.60
2019,08,14,01,03,15.60
2019,08,14,01,04,15.60
2019,08,14,01,05,15.60
2019,08,14,01,06,15.60
2019,08,14,01,07,15.60
2019,08,14,01,08,15.60
2019,08,14,01,09,15.50
2019,08,14,01,10,15.50
2019,08,14,01,11,15.50
2019,08,14,01,12,15.40
2019,08,14,01,13,15.40
2019,08,14,01,14,15.40
2019,08,14,01,15,15.40
2019,08,14,01,16,15.40
2019,08,14,01,17,15.40
2019,08,14,01,18,15.40
2019,08,14,01,19,15.30
2019,08,14,01,20,15.30
2019,08,14,01,21,15.30
2019,08,14,01,22,15.30
2019,08,14,01,23,15.30
2019,08,14,01,24,15.30
2019,08,14,01,25,15.20
2019,08,14,01,26,15.20
2019,08,14,01,27,15.20
2019,08,14,01,28,15.20
2019,08,14,01,29,15.20
2019,08,14,01,30,15.20
2019,08,14,01,31,15.20
2019,08,14,01,32,15.10
2019,08,14,01,33,15.10
2019,08,14,01,34,15.10
2019,08,14,01,35,15.00
2019,08,14,01,36,15.00
2019,08,14,01,37,14.90
2019,08,14,01,38,14.90
2019,08,14,01,39,14.90
2019,08,14,01,40,14.90
2019,08,14,01,41,14.90
2019,08,14,01,42,14.90
2019,08,14,01,43,14.90
2019,08,14,01,44,14.80
2019,08,14,01,45,14.80
2019,08,14,01,46,14.80
2019,08,14,01,47,14.80
2019,08,14,01,48,14.80
2019,08,14,01,49,14.80
2019,08,14,01,50,14.80
2019,08,14,01,51,14.80
2019,08,14,01,52,14.80
2019,08,14,01,53,14.70
2019,08,14,01,54,14.70
2019,08,14,01,55,14.70
2019,08,14,01,56,14.70
2019,08,14,01,57,14.60
2019,08,14,01,58,14.60
2019,08,14,01,59,14.70
2019,08,14,02,00,14.70
2019,08,14,02,01,14.70
2019,08,14,02,02,14.70
2019,08,14,02,03,14.70
2019,08,14,02,04,14.80
2019,08,14,02,05,14.80
2019,08,14,02,06,14.80
2019,08,14,02,07,14.80
2019,08,14,02,08,14.90
2019,08,14,02,09,15.00
2019,08,14,02,10,15.00
2019,08,14,02,11,15.10
2019,08,14,02,12,15.10
2019,08,14,02,13,15.20
2019,08,14,02,14,15.30
2019,08,14,02,15,15.30
2019,08,14,02,16,15.40
2019,08,14,02,17,15.50
2019,08,14,02,18,15.60
2019,08,14,02,19,15.60
2019,08,14,02,20,15.70
2019,08,14,02,21,15.70
2019,08,14,02,22,15.70
2019,08,14,02,23,15.70
2019,08,14,02,24,15.80
2019,08,14,02,25,15.80
2019,08,14,02,26,15.90
2019,08,14,02,27,15.90
2019,08,14,02,28,15.90
2019,08,14,02,29,15.90
2019,08,14,02,30,15.90
2019,08,14,02,31,15.90
2019,08,14,02,32,15.90
2019,08,14,02,33,15.80
2019,08,14,02,34,15.80
2019,08,14,02,35,15.80
2019,08,14,02,36,15.80
2019,08,14,02,37,15.70
2019,08,14,02,38,15.70
2019,08,14,02,39,15.60
2019,08,14,02,40,15.60
2019,08,14,02,41,15.50
2019,08,14,02,42,15.40
2019,08,14,02,43,15.40
2019,08,14,02,44,15.30
2019,08,14,02,45,15.20
2019,08,14,02,46,15.10
2019,08,14,02,47,15.10
2019,08,14,02,48,15.00
2019,08,14,02,49,15.00
2019,08,14,02,50,14.90
2019,08,14,02,51,14.90
2019,08,14,02,52,14.80
2019,08,14,02,53,14.80
2019,08,14,02,54,14.80
2019,08,14,02,55,14.80
2019,08,14,02,56,14.80
2019,08,14,02,57,14.70
2019,08,14,02,58,14.70
2019,08,14,02,59,14.70
2019,08,14,03,00,14.70
2019,08,14,03,01,14.60
2019,08,14,03,02,14.60
2019,08,14,03,03,14.60
2019,08,14,03,04,14.60
2019,08,14,03,05,14.60
2019,08,14,03,06,14.60
2019,08,14,03,07,14.50
2019,08,14,03,08,14.50
2019,08,14,03,09,14.50
2019,08,14,03,10,14.50
2019,08,14,03,11,14.50
2019,08,14,03,12,14.40
2019,08,14,03,13,14.40
2019,08,14,03,14,14.50
2019,08,14,03,15,14.50
2019,08,14,03,16,14.60
2019,08,14,03,17,14.70
2019,08,14,03,18,14.80
2019,08,14,03,19,14.90
2019,08,14,03,20,15.00
2019,08,14,03,21,15.10
2019,08,14,03,22,15.20
2019,08,14,03,23,15.30
2019,08,14,03,24,15.30
2019,08,14,03,25,15.40
2019,08,14,03,26,15.40
2019,08,14,03,27,15.50
2019,08,14,03,28,15.60
2019,08,14,03,29,15.60
2019,08,14,03,30,15.70
2019,08,14,03,31,15.70
2019,08,14,03,32,15.80
2019,08,14,03,33,15.80
2019,08,14,03,34,15.80
2019,08,14,03,35,15.80
2019,08,14,03,36,15.80
2019,08,14,03,37,15.90
2019,08,14,03,38,15.90
2019,08,14,03,39,15.90
2019,08,14,03,40,15.80
2019,08,14,03,41,15.80
2019,08,14,03,42,15.70
2019,08,14,03,43,15.70
2019,08,14,03,44,15.70
2019,08,14,03,45,15.60
2019,08,14,03,46,15.60
2019,08,14,03,47,15.50
2019,08,14,03,48,15.50
2019,08,14,03,49,15.50
2019,08,14,03,50,15.50
2019,08,14,03,51,15.50
2019,08,14,03,52,15.60
2019,08,14,03,53,15.60
2019,08,14,03,54,15.70
2019,08,14,03,55,15.70
2019,08,14,03,56,15.70
2019,08,14,03,57,15.70
2019,08,14,03,58,15.60
2019,08,14,03,59,15.60
2019,08,14,04,00,15.60
2019,08,14,04,01,15.50
2019,08,14,04,02,15.50
2019,08,14,04,03,15.50
2019,08,14,04,04,15.50
2019,08,14,04,05,15.60
2019,08,14,04,06,15.70
2019,08,14,04,07,15.70
2019,08,14,04,08,15.80
2019,08,14,04,09,15.80
2019,08,14,04,10,15.80
2019,08,14,04,11,15.80
2019,08,14,04,12,15.70
2019,08,14,04,13,15.70
2019,08,14,04,14,15.70
2019,08,14,04,15,15.70
2019,08,14,04,16,15.70
2019,08,14,04,17,15.70
2019,08,14,04,18,15.70
2019,08,14,04,19,15.70
2019,08,14,04,20,15.70
2019,08,14,04,21,15.70
2019,08,14,04,22,15.70
2019,08,14,04,23,15.60
2019,08,14,04,24,15.60
2019,08,14,04,25,15.50
2019,08,14,04,26,15.50
2019,08,14,04,27,15.40
2019,08,14,04,28,15.40
2019,08,14,04,29,15.40
2019,08,14,04,30,15.40
2019,08,14,04,31,15.50
2019,08,14,04,32,15.40
2019,08,14,04,33,15.40
2019,08,14,04,34,15.40
2019,08,14,04,35,15.40
2019,08,14,04,36,15.30
2019,08,14,04,37,15.30
2019,08,14,04,38,15.30
2019,08,14,04,39,15.20
2019,08,14,04,40,15.10
2019,08,14,04,41,15.10
2019,08,14,04,42,15.00
2019,08,14,04,43,14.90
2019,08,14,04,44,14.90
2019,08,14,04,45,14.80
2019,08,14,04,46,14.80
2019,08,14,04,47,14.80
2019,08,14,04,48,14.90
2019,08,14,04,49,15.00
2019,08,14,04,50,15.20
2019,08,14,04,51,15.20
2019,08,14,04,52,15.30
2019,08,14,04,53,15.30
2019,08,14,04,54,15.40
2019,08,14,04,55,15.40
2019,08,14,04,56,15.40
2019,08,14,04,57,15.40
2019,08,14,04,58,15.50
2019,08,14,04,59,15.50
2019,08,14,05,00,15.50
2019,08,14,05,01,15.60
2019,08,14,05,02,15.60
2019,08,14,05,03,15.60
2019,08,14,05,04,15.60
2019,08,14,05,05,15.60
2019,08,14,05,06,15.60
2019,08,14,05,07,15.60
2019,08,14,05,08,15.60
2019,08,14,05,09,15.60
2019,08,14,05,10,15.70
2019,08,14,05,11,15.70
2019,08,14,05,12,15.70
2019,08,14,05,13,15.70
2019,08,14,05,14,15.70
2019,08,14,05,15,15.70
2019,08,14,05,16,15.70
2019,08,14,05,17,15.70
2019,08,14,05,18,15.70
2019,08,14,05,19,15.70
2019,08,14,05,20,15.70
2019,08,14,05,21,15.70
2019,08,14,05,22,15.60
2019,08,14,05,23,15.60
2019,08,14,05,24,15.60
2019,08,14,05,25,15.60
2019,08,14,05,26,15.50
2019,08,14,05,27,15.50
2019,08,14,05,28,15.40
2019,08,14,05,29,15.40
2019,08,14,05,30,15.40
2019,08,14,05,31,15.30
2019,08,14,05,32,15.30
2019,08,14,05,33,15.30
2019,08,14,05,34,15.30
2019,08,14,05,35,15.20
2019,08,14,05,36,15.20
2019,08,14,05,37,15.20
2019,08,14,05,38,15.20
2019,08,14,05,39,15.10
2019,08,14,05,40,15.10
2019,08,14,05,41,15.00
2019,08,14,05,42,15.00
2019,08,14,05,43,14.90
2019,08,14,05,44,14.90
2019,08,14,05,45,14.80
2019,08,14,05,46,14.80
2019,08,14,05,47,14.70
2019,08,14,05,48,14.70
2019,08,14,05,49,14.60
2019,08,14,05,50,14.50
2019,08,14,05,51,14.50
2019,08,14,05,52,14.40
2019,08,14,05,53,14.40
2019,08,14,05,54,14.30
2019,08,14,05,55,14.30
2019,08,14,05,56,14.30
2019,08,14,05,57,14.20
2019,08,14,05,58,14.20
2019,08,14,05,59,14.20
2019,08,14,06,00,14.20
2019,08,14,06,01,14.20
2019,08,14,06,02,14.30
2019,08,14,06,03,14.30
2019,08,14,06,04,14.30
2019,08,14,06,05,14.40
2019,08,14,06,06,14.40
2019,08,14,06,07,14.50
2019,08,14,06,08,14.50
2019,08,14,06,09,14.50
2019,08,14,06,10,14.50
2019,08,14,06,11,14.60
2019,08,14,06,12,14.60
2019,08,14,06,13,14.60
2019,08,14,06,14,14.70
2019,08,14,06,15,14.70
2019,08,14,06,16,14.70
2019,08,14,06,17,14.70
2019,08,14,06,18,14.70
2019,08,14,06,19,14.70
2019,08,14,06,20,14.70
2019,08,14,06,21,14.70
2019,08,14,06,22,14.70
2019,08,14,06,23,14.70
2019,08,14,06,24,14.60
2019,08,14,06,25,14.60
2019,08,14,06,26,14.60
2019,08,14,06,27,14.50
2019,08,14,06,28,14.50
2019,08,14,06,29,14.50
2019,08,14,06,30,14.50
2019,08,14,06,31,14.40
2019,08,14,06,32,14.40
2019,08,14,06,33,14.40
2019,08,14,06,34,14.30
2019,08,14,06,35,14.30
2019,08,14,06,36,14.20
2019,08,14,06,37,14.20
2019,08,14,06,38,14.20
2019,08,14,06,39,14.10
2019,08,14,06,40,14.10
2019,08,14,06,41,14.10
2019,08,14,06,42,14.10
2019,08,14,06,43,14.10
2019,08,14,06,44,14.10
2019,08,14,06,45,14.00
2019,08,14,06,46,14.00
2019,08,14,06,47,14.00
2019,08,14,06,48,14.00
2019,08,14,06,49,14.00
2019,08,14,06,50,14.10
2019,08,14,06,51,14.10
2019,08,14,06,52,14.10
2019,08,14,06,53,14.10
2019,08,14,06,54,14.10
2019,08,14,06,55,14.10
2019,08,14,06,56,14.20
2019,08,14,06,57,14.20
2019,08,14,06,58,14.20
2019,08,14,06,59,14.30
2019,08,14,07,00,14.30
2019,08,14,07,01,14.30
2019,08,14,07,02,14.40
2019,08,14,07,03,14.40
2019,08,14,07,04,14.40
2019,08,14,07,05,14.40
2019,08,14,07,06,14.40
2019,08,14,07,07,14.40
2019,08,14,07,08,14.40
2019,08,14,07,09,14.30
2019,08,14,07,10,14.30
2019,08,14,07,11,14.30
2019,08,14,07,12,14.30
2019,08,14,07,13,14.30
2019,08,14,07,14,14.30
2019,08,14,07,15,14.30
2019,08,14,07,16,14.20
2019,08,14,07,17,14.20
2019,08,14,07,18,14.20
2019,08,14,07,19,14.20
2019,08,14,07,20,14.20
2019,08,14,07,21,14.20
2019,08,14,07,22,14.20
2019,08,14,07,23,14.20
2019,08,14,07,24,14.30
2019,08,14,07,25,14.30
2019,08,14,07,26,14.30
2019,08,14,07,27,14.30
2019,08,14,07,28,14.40
2019,08,14,07,29,14.40
2019,08,14,07,30,14.40
2019,08,14,07,31,14.50
2019,08,14,07,32,14.50
2019,08,14,07,33,14.60
2019,08,14,07,34,14.60
2019,08,14,07,35,14.70
2019,08,14,07,36,14.70
2019,08,14,07,37,14.80
2019,08,14,07,38,14.80
2019,08,14,07,39,14.90
2019,08,14,07,40,15.00
2019,08,14,07,41,15.10
2019,08,14,07,42,15.20
2019,08,14,07,43,15.30
2019,08,14,07,44,15.40
2019,08,14,07,45,15.50
2019,08,14,07,46,15.50
2019,08,14,07,47,15.60
2019,08,14,07,48,15.60
2019,08,14,07,49,15.60
2019,08,14,07,50,15.50
2019,08,14,07,51,15.50
2019,08,14,07,52,15.40
2019,08,14,07,53,15.40
2019,08,14,07,54,15.40
2019,08,14,07,55,15.40
2019,08,14,07,56,15.40
2019,08,14,07,57,15.50
2019,08,14,07,58,15.50
2019,08,14,07,59,15.60
2019,08,14,08,00,15.70
2019,08,14,08,01,15.70
2019,08,14,08,02,15.80
2019,08,14,08,03,15.90
2019,08,14,08,04,15.90
2019,08,14,08,05,16.00
2019,08,14,08,06,16.00
2019,08,14,08,07,16.10
2019,08,14,08,08,16.20
2019,08,14,08,09,16.20
2019,08,14,08,10,16.30
2019,08,14,08,11,16.30
2019,08,14,08,12,16.30
2019,08,14,08,13,16.40
2019,08,14,08,14,16.40
2019,08,14,08,15,16.30
2019,08,14,08,16,16.40
2019,08,14,08,17,16.40
2019,08,14,08,18,16.40
2019,08,14,08,19,16.40
2019,08,14,08,20,16.40
2019,08,14,08,21,16.50
2019,08,14,08,22,16.50
2019,08,14,08,23,16.50
2019,08,14,08,24,16.60
2019,08,14,08,25,16.60
2019,08,14,08,26,16.60
2019,08,14,08,27,16.60
2019,08,14,08,28,16.60
2019,08,14,08,29,16.60
2019,08,14,08,30,16.60
2019,08,14,08,31,16.60
2019,08,14,08,32,16.70
2019,08,14,08,33,16.80
2019,08,14,08,34,16.80
2019,08,14,08,35,16.80
2019,08,14,08,36,16.90
2019,08,14,08,37,16.90
2019,08,14,08,38,17.00
2019,08,14,08,39,17.00
2019,08,14,08,40,17.00
2019,08,14,08,41,17.10
2019,08,14,08,42,17.10
2019,08,14,08,43,17.10
2019,08,14,08,44,17.20
2019,08,14,08,45,17.20
2019,08,14,08,46,17.30
2019,08,14,08,47,17.40
2019,08,14,08,48,17.50
2019,08,14,08,49,17.50
2019,08,14,08,50,17.60
2019,08,14,08,51,17.60
2019,08,14,08,52,17.60
2019,08,14,08,53,17.70
2019,08,14,08,54,17.60
2019,08,14,08,55,17.60
2019,08,14,08,56,17.60
2019,08,14,08,57,17.70
2019,08,14,08,58,17.70
2019,08,14,08,59,17.70
2019,08,14,09,00,17.80
2019,08,14,09,01,17.80
2019,08,14,09,02,17.80
2019,08,14,09,03,17.80
2019,08,14,09,04,17.80
2019,08,14,09,05,17.80
2019,08,14,09,06,17.80
2019,08,14,09,07,17.80
2019,08,14,09,08,17.90
2019,08,14,09,09,18.00
2019,08,14,09,10,18.10
2019,08,14,09,11,18.20
2019,08,14,09,12,18.20
2019,08,14,09,13,18.30
2019,08,14,09,14,18.30
2019,08,14,09,15,18.40
2019,08,14,09,16,18.40
2019,08,14,09,17,18.50
2019,08,14,09,18,18.50
2019,08,14,09,19,18.60
2019,08,14,09,20,18.70
2019,08,14,09,21,18.80
2019,08,14,09,22,18.80
2019,08,14,09,23,18.90
2019,08,14,09,24,18.90
2019,08,14,09,25,19.00
2019,08,14,09,26,19.10
2019,08,14,09,27,19.30
2019,08,14,09,28,19.30
2019,08,14,09,29,19.40
2019,08,14,09,30,19.40
2019,08,14,09,31,19.40
2019,08,14,09,32,19.50
2019,08,14,09,33,19.50
2019,08,14,09,34,19.50
2019,08,14,09,35,19.50
2019,08,14,09,36,19.50
2019,08,14,09,37,19.50
2019,08,14,09,38,19.50
2019,08,14,09,39,19.60
2019,08,14,09,40,19.70
2019,08,14,09,41,19.70
2019,08,14,09,42,19.80
2019,08,14,09,43,19.80
2019,08,14,09,44,19.90
2019,08,14,09,45,20.00
2019,08,14,09,46,20.10
2019,08,14,09,47,20.00
2019,08,14,09,48,19.80
2019,08,14,09,49,19.80
2019,08,14,09,50,19.80
2019,08,14,09,51,19.80
2019,08,14,09,52,19.80
2019,08,14,09,53,19.80
2019,08,14,09,54,19.80
2019,08,14,09,55,19.90
2019,08,14,09,56,19.80
2019,08,14,09,57,19.80
2019,08,14,09,58,19.80
2019,08,14,09,59,19.70
2019,08,14,10,00,19.60
2019,08,14,10,01,19.40
2019,08,14,10,02,19.40
2019,08,14,10,03,19.40
2019,08,14,10,04,19.50
2019,08,14,10,05,19.50
2019,08,14,10,06,19.40
2019,08,14,10,07,19.40
2019,08,14,10,08,19.50
2019,08,14,10,09,19.50
2019,08,14,10,10,19.50
2019,08,14,10,11,19.50
2019,08,14,10,12,19.60
2019,08,14,10,13,19.60
2019,08,14,10,14,19.60
2019,08,14,10,15,19.70
2019,08,14,10,16,19.80
2019,08,14,10,17,20.00
2019,08,14,10,18,20.10
2019,08,14,10,19,20.20
2019,08,14,10,20,20.30
2019,08,14,10,21,20.40
2019,08,14,10,22,20.40
2019,08,14,10,23,20.40
2019,08,14,10,24,20.40
2019,08,14,10,25,20.40
2019,08,14,10,26,20.40
2019,08,14,10,27,20.40
2019,08,14,10,28,20.40
2019,08,14,10,29,20.40
2019,08,14,10,30,20.50
2019,08,14,10,31,20.40
2019,08,14,10,32,20.40
2019,08,14,10,33,20.50
2019,08,14,10,34,20.60
2019,08,14,10,35,20.60
2019,08,14,10,36,20.60
2019,08,14,10,37,20.60
2019,08,14,10,38,20.60
2019,08,14,10,39,20.60
2019,08,14,10,40,20.60
2019,08,14,10,41,20.60
2019,08,14,10,42,20.60
2019,08,14,10,43,20.50
2019,08,14,10,44,20.50
2019,08,14,10,45,20.50
2019,08,14,10,46,20.50
2019,08,14,10,47,20.50
2019,08,14,10,48,20.60
2019,08,14,10,49,20.60
2019,08,14,10,50,20.60
2019,08,14,10,51,20.60
2019,08,14,10,52,20.60
2019,08,14,10,53,20.70
2019,08,14,10,54,20.70
2019,08,14,10,55,20.70
2019,08,14,10,56,20.80
2019,08,14,10,57,20.80
2019,08,14,10,58,20.70
2019,08,14,10,59,20.70
2019,08,14,11,00,20.80
2019,08,14,11,01,20.90
2019,08,14,11,02,21.10
2019,08,14,11,03,21.20
2019,08,14,11,04,21.40
2019,08,14,11,05,21.50
2019,08,14,11,06,21.70
2019,08,14,11,07,21.70
2019,08,14,11,08,21.70
2019,08,14,11,09,21.70
2019,08,14,11,10,21.70
2019,08,14,11,11,21.70
2019,08,14,11,12,21.70
2019,08,14,11,13,21.70
2019,08,14,11,14,21.70
2019,08,14,11,15,21.60
2019,08,14,11,16,21.60
2019,08,14,11,17,21.50
2019,08,14,11,18,21.70
2019,08,14,11,19,21.80
2019,08,14,11,20,21.90
2019,08,14,11,21,22.00
2019,08,14,11,22,21.90
2019,08,14,11,23,21.80
2019,08,14,11,24,21.80
2019,08,14,11,25,21.80
2019,08,14,11,26,21.80
2019,08,14,11,27,21.70
2019,08,14,11,28,21.60
2019,08,14,11,29,21.60
2019,08,14,11,30,21.50
2019,08,14,11,31,21.50
2019,08,14,11,32,21.50
2019,08,14,11,33,21.40
2019,08,14,11,34,21.40
2019,08,14,11,35,21.30
2019,08,14,11,36,21.40
2019,08,14,11,37,21.40
2019,08,14,11,38,21.40
2019,08,14,11,39,21.50
2019,08,14,11,40,21.60
2019,08,14,11,41,21.60
2019,08,14,11,42,21.80
2019,08,14,11,43,21.90
2019,08,14,11,44,22.00
2019,08,14,11,45,22.00
2019,08,14,11,46,22.00
2019,08,14,11,47,22.00
2019,08,14,11,48,22.00
2019,08,14,11,49,22.00
2019,08,14,11,50,22.10
2019,08,14,11,51,22.20
2019,08,14,11,52,22.30
2019,08,14,11,53,22.40
2019,08,14,11,54,22.40
2019,08,14,11,55,22.40
2019,08,14,11,56,22.50
2019,08,14,11,57,22.50
2019,08,14,11,58,22.60
2019,08,14,11,59,22.70
2019,08,14,12,00,22.80
2019,08,14,12,01,22.80
2019,08,14,12,02,22.90
2019,08,14,12,03,23.00
2019,08,14,12,04,23.10
2019,08,14,12,05,23.20
2019,08,14,12,06,23.40
2019,08,14,12,07,23.50
2019,08,14,12,08,23.60
2019,08,14,12,09,23.60
2019,08,14,12,10,23.60
2019,08,14,12,11,23.50
2019,08,14,12,12,23.40
2019,08,14,12,13,23.30
2019,08,14,12,14,23.20
2019,08,14,12,15,23.20
2019,08,14,12,16,23.20
2019,08,14,12,17,23.20
2019,08,14,12,18,23.20
2019,08,14,12,19,23.30
2019,08,14,12,20,23.30
2019,08,14,12,21,23.40
2019,08,14,12,22,23.40
2019,08,14,12,23,23.40
2019,08,14,12,24,23.30
2019,08,14,12,25,23.20
2019,08,14,12,26,23.10
2019,08,14,12,27,23.00
2019,08,14,12,28,23.00
2019,08,14,12,29,23.00
2019,08,14,12,30,23.10
2019,08,14,12,31,23.10
2019,08,14,12,32,23.10
2019,08,14,12,33,23.20
2019,08,14,12,34,23.10
2019,08,14,12,35,23.10
2019,08,14,12,36,23.20
2019,08,14,12,37,23.10
2019,08,14,12,38,23.20
2019,08,14,12,39,23.20
2019,08,14,12,40,23.30
2019,08,14,12,41,23.30
2019,08,14,12,42,23.30
2019,08,14,12,43,23.30
2019,08,14,12,44,23.30
2019,08,14,12,45,23.30
2019,08,14,12,46,23.30
2019,08,14,12,47,23.40
2019,08,14,12,48,23.50
2019,08,14,12,49,23.60
2019,08,14,12,50,23.70
2019,08,14,12,51,23.80
2019,08,14,12,52,23.80
2019,08,14,12,53,23.80
2019,08,14,12,54,23.80
2019,08,14,12,55,23.80
2019,08,14,12,56,23.90
2019,08,14,12,57,23.90
2019,08,14,12,58,23.90
2019,08,14,12,59,23.90
2019,08,14,13,00,24.00
2019,08,14,13,01,24.10
2019,08,14,13,02,24.20
2019,08,14,13,03,24.30
2019,08,14,13,04,24.30
2019,08,14,13,05,24.30
2019,08,14,13,06,24.20
2019,08,14,13,07,24.20
2019,08,14,13,08,24.10
2019,08,14,13,09,24.10
2019,08,14,13,10,24.20
2019,08,14,13,11,24.20
2019,08,14,13,12,24.20
2019,08,14,13,13,24.30
2019,08,14,13,14,24.30
2019,08,14,13,15,24.30
2019,08,14,13,16,24.30
2019,08,14,13,17,24.30
2019,08,14,13,18,24.20
2019,08,14,13,19,24.30
2019,08,14,13,20,24.30
2019,08,14,13,21,24.30
2019,08,14,13,22,24.20
2019,08,14,13,23,24.20
2019,08,14,13,24,24.10
2019,08,14,13,25,24.10
2019,08,14,13,26,24.10
2019,08,14,13,27,24.20
2019,08,14,13,28,24.20
2019,08,14,13,29,24.20
2019,08,14,13,30,24.20
2019,08,14,13,31,24.20
2019,08,14,13,32,24.30
2019,08,14,13,33,24.30
2019,08,14,13,34,24.20
2019,08,14,13,35,24.20
2019,08,14,13,36,24.20
2019,08,14,13,37,24.30
2019,08,14,13,38,24.30
2019,08,14,13,39,24.30
2019,08,14,13,40,24.30
2019,08,14,13,41,24.40
2019,08,14,13,42,24.40
2019,08,14,13,43,24.50
2019,08,14,13,44,24.60
2019,08,14,13,45,24.60
2019,08,14,13,46,24.70
2019,08,14,13,47,24.90
2019,08,14,13,48,25.00
2019,08,14,13,49,25.00
2019,08,14,13,50,25.10
2019,08,14,13,51,25.20
2019,08,14,13,52,25.20
2019,08,14,13,53,25.20
2019,08,14,13,54,25.10
2019,08,14,13,55,24.90
2019,08,14,13,56,24.80
2019,08,14,13,57,24.70
2019,08,14,13,58,24.60
2019,08,14,13,59,24.50
2019,08,14,14,00,24.40
2019,08,14,14,01,24.30
2019,08,14,14,02,24.10
2019,08,14,14,03,24.10
2019,08,14,14,04,24.10
2019,08,14,14,05,24.00
2019,08,14,14,06,24.00
2019,08,14,14,07,24.00
2019,08,14,14,08,24.00
2019,08,14,14,09,24.10
2019,08,14,14,10,24.10
2019,08,14,14,11,24.10
2019,08,14,14,12,24.20
2019,08,14,14,13,24.20
2019,08,14,14,14,24.30
2019,08,14,14,15,24.30
2019,08,14,14,16,24.20
2019,08,14,14,17,24.30
2019,08,14,14,18,24.20
2019,08,14,14,19,24.30
2019,08,14,14,20,24.30
2019,08,14,14,21,24.30
2019,08,14,14,22,24.30
2019,08,14,14,23,24.30
2019,08,14,14,24,24.30
2019,08,14,14,25,24.40
2019,08,14,14,26,24.40
2019,08,14,14,27,24.40
2019,08,14,14,28,24.50
2019,08,14,14,29,24.60
2019,08,14,14,30,24.60
2019,08,14,14,31,24.60
2019,08,14,14,32,24.60
2019,08,14,14,33,24.60
2019,08,14,14,34,24.70
2019,08,14,14,35,24.80
2019,08,14,14,36,24.80
2019,08,14,14,37,24.80
2019,08,14,14,38,24.90
2019,08,14,14,39,25.00
2019,08,14,14,40,25.00
2019,08,14,14,41,25.00
2019,08,14,14,42,25.10
2019,08,14,14,43,25.10
2019,08,14,14,44,25.10
2019,08,14,14,45,25.10
2019,08,14,14,46,25.00
2019,08,14,14,47,25.00
2019,08,14,14,48,25.10
2019,08,14,14,49,25.10
2019,08,14,14,50,25.10
2019,08,14,14,51,25.10
2019,08,14,14,52,25.10
2019,08,14,14,53,25.10
2019,08,14,14,54,25.00
2019,08,14,14,55,24.90
2019,08,14,14,56,24.90
2019,08,14,14,57,24.90
2019,08,14,14,58,24.80
2019,08,14,14,59,24.90
2019,08,14,15,00,24.90
2019,08,14,15,01,24.90
2019,08,14,15,02,24.80
2019,08,14,15,03,24.80
2019,08,14,15,04,24.90
2019,08,14,15,05,24.90
2019,08,14,15,06,24.80
2019,08,14,15,07,24.80
2019,08,14,15,08,24.90
2019,08,14,15,09,24.90
2019,08,14,15,10,25.00
2019,08,14,15,11,25.00
2019,08,14,15,12,25.10
2019,08,14,15,13,25.10
2019,08,14,15,14,25.20
2019,08,14,15,15,25.30
2019,08,14,15,16,25.40
2019,08,14,15,17,25.40
2019,08,14,15,18,25.40
2019,08,14,15,19,25.40
2019,08,14,15,20,25.40
2019,08,14,15,21,25.40
2019,08,14,15,22,25.30
2019,08,14,15,23,25.40
2019,08,14,15,24,25.40
2019,08,14,15,25,25.40
2019,08,14,15,26,25.50
2019,08,14,15,27,25.60
2019,08,14,15,28,25.60
2019,08,14,15,29,25.60
2019,08,14,15,30,25.60
2019,08,14,15,31,25.70
2019,08,14,15,32,25.80
2019,08,14,15,33,25.80
2019,08,14,15,34,25.90
2019,08,14,15,35,26.00
2019,08,14,15,36,26.00
2019,08,14,15,37,26.00
2019,08,14,15,38,25.90
2019,08,14,15,39,26.00
2019,08,14,15,40,25.90
2019,08,14,15,41,25.90
2019,08,14,15,42,26.00
2019,08,14,15,43,25.90
2019,08,14,15,44,25.90
2019,08,14,15,45,25.90
2019,08,14,15,46,25.90
2019,08,14,15,47,25.90
2019,08,14,15,48,25.90
2019,08,14,15,49,25.90
2019,08,14,15,50,25.90
2019,08,14,15,51,25.90
2019,08,14,15,52,25.90
2019,08,14,15,53,26.00
2019,08,14,15,54,25.90
2019,08,14,15,55,25.90
2019,08,14,15,56,25.90
2019,08,14,15,57,25.80
2019,08,14,15,58,25.80
2019,08,14,15,59,25.90
2019,08,14,16,00,25.80
2019,08,14,16,01,25.90
2019,08,14,16,02,25.90
2019,08,14,16,03,25.90
2019,08,14,16,04,25.90
2019,08,14,16,05,25.90
2019,08,14,16,06,26.00
2019,08,14,16,07,26.00
2019,08,14,16,08,26.00
2019,08,14,16,09,25.90
2019,08,14,16,10,25.90
2019,08,14,16,11,25.90
2019,08,14,16,12,25.90
2019,08,14,16,13,25.90
2019,08,14,16,14,25.90
2019,08,14,16,15,26.00
2019,08,14,16,16,26.00
2019,08,14,16,17,26.00
2019,08,14,16,18,26.10
2019,08,14,16,19,26.10
2019,08,14,16,20,26.00
2019,08,14,16,21,26.10
2019,08,14,16,22,26.10
2019,08,14,16,23,26.20
2019,08,14,16,24,26.20
2019,08,14,16,25,26.20
2019,08,14,16,26,26.20
2019,08,14,16,27,26.20
2019,08,14,16,28,26.20
2019,08,14,16,29,26.20
2019,08,14,16,30,26.20
2019,08,14,16,31,26.20
2019,08,14,16,32,26.20
2019,08,14,16,33,26.30
2019,08,14,16,34,26.30
2019,08,14,16,35,26.20
2019,08,14,16,36,26.20
2019,08,14,16,37,26.20
2019,08,14,16,38,26.20
2019,08,14,16,39,26.30
2019,08,14,16,40,26.30
2019,08,14,16,41,26.30
2019,08,14,16,42,26.20
2019,08,14,16,43,26.20
2019,08,14,16,44,26.20
2019,08,14,16,45,26.20
2019,08,14,16,46,26.20
2019,08,14,16,47,26.20
2019,08,14,16,48,26.30
2019,08,14,16,49,26.30
2019,08,14,16,50,26.30
2019,08,14,16,51,26.30
2019,08,14,16,52,26.30
2019,08,14,16,53,26.40
2019,08,14,16,54,26.40
2019,08,14,16,55,26.40
2019,08,14,16,56,26.40
2019,08,14,16,57,26.40
2019,08,14,16,58,26.40
2019,08,14,16,59,26.50
2019,08,14,17,00,26.60
2019,08,14,17,01,26.50
2019,08,14,17,02,26.50
2019,08,14,17,03,26.50
2019,08,14,17,04,26.50
2019,08,14,17,05,26.50
2019,08,14,17,06,26.60
2019,08,14,17,07,26.50
2019,08,14,17,08,26.50
2019,08,14,17,09,26.50
2019,08,14,17,10,26.50
2019,08,14,17,11,26.50
2019,08,14,17,12,26.50
2019,08,14,17,13,26.50
2019,08,14,17,14,26.50
2019,08,14,17,15,26.60
2019,08,14,17,16,26.60
2019,08,14,17,17,26.60
2019,08,14,17,18,26.60
2019,08,14,17,19,26.60